Hourly Data Report for November 08, 2019

SHEARWATER RCS
NOVA SCOTIA
Current Station Operator: ECCC - MSC

44°37'47.000" N
63°30'48.000" W
24.00 m
8205092
71264
AAW

Download Data

Hourly Data (November 2019)
Hourly Data Report for November 8, 2019
TIME
LST
Temp Definition
°C
Dew Point Definition
°C
Rel Hum Definition
%
Precip. Amount Definition
mm

Wind Dir Definition
10's deg

Wind Spd Definition
km/h
Visibility Definition
km
Stn Press Definition
kPa
Hmdx Definition


Wind Chill Definition


Weather Definition


00:00 10.4 8.1 86 0.3 19 18   100.91     LegendNANA
01:00 10.6 7.1 79 0.0 19 18   100.65     LegendNANA
02:00 10.6 8.6 88 0.0 18 19   100.54     LegendNANA
03:00 10.6 9.2 91 1.6 19 10   100.43     LegendNANA
04:00 6.0 4.7 92 8.9 33 31   100.28     LegendNANA
05:00 5.8 4.6 92 1.5 3 12   100.20     LegendNANA
06:00 5.5 4.4 93 0.6 32 5   100.23     LegendNANA
07:00 5.2 4.1 93 0.5 33 10   100.25     LegendNANA
08:00 4.9 3.7 92 0.2 36 8   100.27     LegendNANA
09:00 4.3 3.2 92 0.0 34 9   100.22     LegendNANA
10:00 4.0 2.7 91 0.0 32 12   100.17     LegendNANA
11:00 4.1 2.7 91 0.0 32 12   100.10     LegendNANA
12:00 4.1 2.4 89 0.0 35 15   100.03     LegendNANA
13:00 3.9 2.3 90 0.0 34 12   100.02     LegendNANA
14:00 4.4 2.5 87 0.0 31 12   100.01     LegendNANA
15:00 4.5 2.4 87 0.0 31 10   100.01     LegendNANA
16:00 4.3 2.6 89 0.0 2 8   99.92     LegendNANA
17:00 3.7 1.7 87 0.0 34 12   99.95     LegendNANA
18:00 2.1 0.7 90 0.3 34 18   100.08     LegendNANA
19:00 1.3 -0.3 89 0.0 33 14   100.21     LegendNANA
20:00 1.2 -0.4 89 0.0 34 17   100.23     LegendNANA
21:00 1.0 -0.6 89 0.0 34 15   100.32     LegendNANA
22:00 0.5 -0.8 91 0.2 33 14   100.40     LegendNANA
23:00 -0.3 -1.5 91 0.0 33 17   100.47   -5 LegendNANA

Notes on Data Quality.

Legend

  • E = Estimated
  • M = Missing
  • NA = Not Available*
  • [empty] = Indicates an unobserved value
Date modified: